Weather History for KBRO - February, 2013

Change the Weather History Date:

Sunday, February 17, 2013

  Actual Average Record
Temperature  
Mean Temperature 60 °F 64 °F  
Max Temperature 76 °F 74 °F 88 °F (1898)
Min Temperature 44 °F 55 °F 22 °F (1895)
Degree Days  
Heating Degree Days 5 3  
Month to date heating degree days 24 74  
Since 1 July heating degree days 280 473  
Cooling Degree Days 0 3  
Month to date cooling degree days 93 46  
Year to date cooling degree days 167 105  
Growing Degree Days 12 (Base 50)    
Moisture  
Dew Point 50 °F    
Average Humidity 64    
Maximum Humidity 86    
Minimum Humidity 41    
Precipitation  
Precipitation 0.00 in 0.04 in 1.80 in (1973)
Month to date precipitation 0.01 0.75  
Year to date precipitation 1.48 2.02  
Sea Level Pressure  
Sea Level Pressure 30.15 in    
Wind  
Wind Speed 15 mph (SE)    
Max Wind Speed 29 mph    
Max Gust Speed 36 mph    
Visibility 10 miles    
Events      
T = Trace of Precipitation, MM = Missing Value Source: NWS Daily Summary

Daily Weather History Graph

Daily Weather History Graph

Search for Another Location

Airport or City:

Trip Planner

Search our weather history database for the weather conditions in past years. The results will help you decide how hot, cold, wet, or windy it might be!

Date:

Astronomy

Feb. 17, 2013 Rise Set
Actual Time 7:03 AM CST 6:24 PM CST
Civil Twilight 6:39 AM CST 6:47 PM CST
Nautical Twilight 6:12 AM CST 7:14 PM CST
Astronomical Twilight 5:45 AM CST 7:41 PM CST
Moon 11:43 AM CST (2/17) 12:36 AM CST (2/17)
Length of Visible Light 12h 08m
Length of Day
11h 21m
Waxing Crescent, 49% of the Moon is Illuminated
Feb 17
Waxing Crescent
Feb 17
First Quarter
Feb 25
Full
Mar 4
Last Quarter
Mar 11
New

Hourly Weather History & Observations

Time (CST) Temp. Windchill Dew Point Humidity Pressure Visibility Wind Dir Wind Speed Gust Speed Precip Events Conditions
12:53 AM 48.0 °F - 39.9 °F 74% 30.29 in 10.0 mi ESE 5.8 mph - N/A   Clear
1:53 AM 46.0 °F 43.1 °F 39.9 °F 79% 30.28 in 10.0 mi South 5.8 mph - N/A   Clear
2:53 AM 46.9 °F - 41.0 °F 80% 30.25 in 10.0 mi SE 3.5 mph - N/A   Clear
3:53 AM 46.9 °F - 43.0 °F 86% 30.23 in 10.0 mi ESE 6.9 mph - N/A   Clear
4:53 AM 48.0 °F - 42.1 °F 80% 30.22 in 10.0 mi Calm Calm - N/A   Clear
5:53 AM 48.9 °F - 43.0 °F 80% 30.22 in 10.0 mi SE 3.5 mph - N/A   Clear
6:53 AM 50.0 °F - 45.0 °F 83% 30.21 in 10.0 mi ESE 3.5 mph - N/A   Clear
7:53 AM 55.9 °F - 48.9 °F 77% 30.22 in 10.0 mi ESE 5.8 mph - N/A   Clear
8:53 AM 64.9 °F - 52.0 °F 63% 30.23 in 10.0 mi SE 10.4 mph - N/A   Clear
9:53 AM 70.0 °F - 48.9 °F 47% 30.22 in 10.0 mi SSE 18.4 mph 32.2 mph N/A   Clear
10:53 AM 73.0 °F - 48.9 °F 42% 30.22 in 10.0 mi SSE 25.3 mph 32.2 mph N/A   Clear
11:53 AM 75.0 °F - 50.0 °F 41% 30.19 in 10.0 mi SSE 25.3 mph 34.5 mph N/A   Mostly Cloudy
12:53 PM 72.0 °F - 50.0 °F 46% 30.14 in 10.0 mi SSE 23.0 mph 32.2 mph N/A   Overcast
1:53 PM 70.0 °F - 51.1 °F 51% 30.12 in 10.0 mi SE 24.2 mph 32.2 mph N/A   Overcast
2:53 PM 69.1 °F - 52.0 °F 54% 30.09 in 10.0 mi SSE 24.2 mph 28.8 mph N/A   Overcast
3:53 PM 69.1 °F - 53.1 °F 57% 30.07 in 10.0 mi SSE 23.0 mph 31.1 mph N/A   Overcast
4:53 PM 68.0 °F - 54.0 °F 61% 30.06 in 10.0 mi SE 23.0 mph 28.8 mph N/A   Overcast
5:53 PM 68.0 °F - 55.0 °F 63% 30.05 in 10.0 mi SE 24.2 mph 31.1 mph N/A   Overcast
6:53 PM 66.9 °F - 55.0 °F 66% 30.04 in 10.0 mi SSE 18.4 mph 29.9 mph N/A   Overcast
7:53 PM 68.0 °F - 55.9 °F 65% 30.05 in 10.0 mi SE 19.6 mph 25.3 mph N/A   Overcast
8:53 PM 68.0 °F - 57.0 °F 68% 30.05 in 10.0 mi SE 18.4 mph - N/A   Overcast
9:53 PM 68.0 °F - 57.0 °F 68% 30.04 in 10.0 mi SSE 19.6 mph - N/A   Overcast
11:53 PM 69.1 °F - 59.0 °F 70% 30.02 in 10.0 mi SSE 18.4 mph 25.3 mph N/A   Overcast